Tracking 33679 objects as of 4-Apr-2026
HD Live streaming from Space Station
objects crossing your sky now
Track ARTEMIS 2 (INTEGRITY)

COSMOS 2534 (GLONASS)

Track COSMOS 2534 (GLONASS) now!
COSMOS 2534 (GLONASS) is classified as:


NORAD ID: 44299
Int'l Code: 2019-030A
Perigee: 19,109.3 km
Apogee: 19,164.7 km
Inclination: 64.4 °
Period: 675.7 minutes
Semi major axis: 25507 km
RCS: Unknown
Launch date: May 27, 2019
Source: Commonwealth of Independent States (former USSR) (CIS)
Launch site: PLESETSK MISSILE AND SPACE COMPLEX (PKMTR)
SV: 758
Your satellite tracking list
Your tracking list is empty




NASA's NSSDC Master Catalog

Two Line Element Set (TLE):
1 44299U 19030A   26092.46822809  .00000005  00000-0  00000-0 0  9994
2 44299  64.3670 195.1642 0010844 278.2113  91.7529  2.13102468 53317
Source of the keplerian elements: AFSPC